User: anonymous   Login
Location: Newark
(19.5361°N, 155.5761°W)
Time: 03:46:24
(UTC+00:00)
Language:

NOAA 15 - Orbit

View from above orbital plane
View from above orbital plane
View from above satellite
View from above satellite

Ground track
Ground track

The orbit data is extracted from the following two-line orbital elements,

1 25338U 98030A   20092.17951112 +.00000020 +00000-0 +27093-4 0  9998
2 25338 098.7252 117.5940 0011414 124.8277 235.3978 14.25956848137960
Epoch (UTC): 01 April 2020 04:18:29
Eccentricity: 0.0011414
inclination: 98.7252°
perigee height: 797 km
apogee height: 813 km
right ascension of ascending node: 117.5940°
argument of perigee: 124.8277°
revolutions per day: 14.25956848
mean anomaly at epoch: 235.3978°
orbit number at epoch: 13796

The dashed part of the orbit path shows where the satellite is in the earth's shadow,  

DLR